Temp
11 11 11 10 9 9 9 9 8 8 8 9 9 10 11 11 11 10 9 7 6 6 6 6 6 6 8 10 10 12 12 11 11 11 10 9 8 8 10 11 11 10 11
11 11 10 9 9 8 8 8 8 8 8 8 9 10 10 10 9 9 8 7 6 6 6 5 5 6 6 9 10 11 11 11 11 10 10 9 9 8 7 9 11 9 11
11 10 10 9 9 9 8 8 8 8 7 7 9 8 8 8 8 8 8 8 6 6 6 5 5 5 7 8 8 9 10 10 10 10 10 10 10 8 6 7 9 10 10
10 10 9 9 9 8 8 8 7 7 7 8 8 8 8 8 8 8 7 6 5 5 5 5 4 4 6 7 7 8 9 9 9 9 9 9 9 8 6 6 7 7 9
10 10 9 9 8 8 7 8 9 8 8 9 9 8 8 8 7 7 7 7 6 5 4 4 4 5 7 7 7 8 8 9 8 8 8 8 8 8 6 5 6 6 6
10 10 9 9 7 7 7 9 9 9 9 9 8 8 8 7 7 7 7 5 4 4 4 4 5 6 6 6 7 7 7 8 8 8 7 7 7 7 6 5 6 6 5
10 9 8 8 7 7 9 9 9 9 9 8 8 8 7 7 7 6 5 5 5 5 5 5 5 5 6 6 6 7 7 7 7 7 7 8 7 5 6 5 5 5 5
9 8 8 7 7 9 9 9 8 8 8 7 7 7 7 6 6 6 6 6 6 5 5 4 5 5 5 5 5 6 6 6 5 6 6 7 6 5 5 5 5 5 5
8 8 7 7 9 9 8 8 8 7 7 7 7 6 6 6 6 6 5 5 5 5 4 4 5 4 5 4 4 4 5 5 5 5 5 6 5 5 4 4 4 5 5
8 7 7 6 6 6 5 7 7 7 6 6 6 6 6 5 5 5 5 4 4 4 4 4 4 4 3 3 3 3 4 4 4 4 5 5 4 4 3 4 4 4 4
8 7 7 6 6 6 5 7 6 6 6 6 5 6 4 3 3 2 4 4 3 3 4 3 3 3 3 1 1 2 3 2 2 3 4 3 3 3 2 3 3 3 4
8 8 7 6 7 7 7 7 6 5 5 5 5 4 3 3 3 2 2 3 2 3 2 3 3 2 1 1 1 1 1 1 1 2 3 2 3 3 2 3 3 2 2
8 7 7 7 7 6 7 6 5 5 4 4 3 4 3 2 2 2 2 2 1 1 1 1 1 1 -0 -0 0 0 -0 0 1 1 2 0 2 2 1 2 3 2 2
7 7 6 7 6 6 5 5 4 4 4 4 3 4 2 2 2 1 1 1 1 0 0 0 0 -0 -1 -1 -1 -1 -1 -1 -0 -0 0 -1 0 1 1 1 2 3 2
7 6 6 6 6 6 6 5 4 4 4 3 3 2 1 1 1 1 1 1 0 0 0 -0 0 -0 -0 -0 -1 -1 -1 -1 -1 -1 -0 -1 -1 0 1 0 1 2 2
6 7 6 6 6 6 5 4 4 3 3 3 2 1 0 1 0 0 1 1 0 -0 -1 -0 -1 -1 -0 -0 -0 -1 -1 -1 -1 -1 -1 -0 -2 -1 0 1 0 1 2
6 6 6 5 6 5 4 4 3 2 2 2 1 1 0 -0 -0 -1 0 0 -0 -1 -1 -1 -1 -1 -1 -0 -1 -1 -1 -1 -1 -2 -2 -1 -1 -1 -1 0 1 0 1
6 5 5 5 5 5 4 4 3 3 1 1 1 0 -1 -1 -1 -1 -0 -0 -1 -1 -1 -1 -2 -1 -1 -1 -1 -1 -1 -1 -1 -2 -2 -2 -1 -1 -1 -0 -0 -0 1
5 5 5 5 4 3 3 2 2 2 1 1 0 -0 -1 -1 -2 -2 -1 -1 -2 -2 -2 -2 -2 -2 -2 -2 -2 -2 -1 -1 -1 -2 -2 -2 -2 -2 -2 -1 -1 -0 0
5 5 4 3 3 3 2 2 2 2 1 0 -0 -1 -2 -2 -2 -2 -2 -2 -3 -2 -2 -3 -3 -3 -3 -2 -2 -2 -2 -2 -2 -2 -2 -2 -2 -3 -2 -2 -1 0 -1
5 3 3 3 4 2 2 2 2 1 1 0 -1 -2 -2 -3 -3 -3 -2 -3 -3 -3 -3 -3 -3 -3 -3 -2 -3 -2 -2 -1 -3 -2 -2 -2 -2 -2 -2 -3 -2 -1 -1
3 3 3 2 2 2 1 1 0 -0 -0 -1 -1 -2 -2 -3 -3 -3 -3 -3 -3 -3 -3 -3 -3 -3 -3 -3 -3 -3 -2 -1 -1 -2 -3 -3 -3 -3 -3 -3 -3 -3 -2
3 3 2 1 1 0 -0 0 0 1 1 -0 -1 -1 -2 -3 -3 -4 -4 -4 -4 -4 -3 -3 -3 -4 -3 -3 -3 -3 -4 -3 -3 -3 -3 -3 -4 -4 -4 -3 -3 -3 -3
3 2 2 1 1 -0 -1 -0 -1 -0 -0 -1 -1 -2 -2 -3 -3 -3 -4 -4 -4 -4 -4 -3 -3 -4 -4 -3 -3 -3 -4 -4 -5 -5 -4 -3 -4 -4 -4 -4 -3 -3 -3
3 2 1 1 0 -1 -1 -1 -1 -1 -1 -2 -2 -2 -2 -3 -3 -4 -4 -5 -4 -4 -4 -4 -4 -4 -4 -4 -4 -4 -5 -5 -4 -4 -4 -4 -4 -4 -4 -4 -4 -4 -4
3 2 1 1 -0 -1 -1 -2 -2 -2 -2 -2 -2 -2 -3 -3 -3 -4 -5 -5 -5 -5 -5 -5 -5 -5 -5 -5 -5 -5 -5 -5 -5 -5 -6 -6 -5 -5 -5 -5 -5 -4 -4
Height
1557 1558 1559 1561 1561 1561 1561 1561 1561 1560 1560 1559 1558 1557 1555 1554 1553 1551 1549 1549 1548 1547 1544 1542 1540 1538 1535 1532 1531 1530 1528 1527 1526 1525 1524 1524 1523 1521 1519 1519 1519 1521 1515
1556 1558 1560 1561 1562 1562 1563 1562 1562 1562 1561 1560 1557 1557 1555 1554 1553 1551 1550 1548 1548 1548 1544 1543 1540 1537 1536 1533 1531 1529 1528 1526 1525 1525 1525 1525 1523 1520 1518 1518 1518 1516 1515
1556 1559 1561 1563 1563 1563 1563 1563 1563 1562 1562 1560 1559 1557 1556 1555 1554 1552 1550 1549 1548 1547 1545 1542 1540 1537 1534 1532 1530 1528 1526 1525 1525 1524 1525 1528 1526 1520 1517 1515 1516 1515 1514
1558 1559 1561 1563 1564 1564 1564 1563 1563 1563 1562 1559 1559 1558 1556 1555 1554 1552 1551 1549 1548 1547 1545 1542 1540 1536 1533 1532 1529 1526 1525 1524 1523 1523 1526 1525 1524 1519 1517 1515 1514 1513 1514
1558 1560 1562 1564 1564 1564 1564 1564 1563 1563 1562 1559 1559 1558 1556 1556 1554 1552 1550 1549 1547 1546 1543 1540 1538 1535 1531 1530 1528 1526 1523 1523 1522 1522 1524 1522 1522 1519 1516 1514 1514 1512 1511
1559 1561 1562 1564 1565 1565 1565 1563 1563 1563 1562 1560 1559 1558 1558 1556 1554 1552 1550 1548 1546 1544 1541 1538 1535 1532 1529 1528 1526 1524 1522 1521 1520 1523 1521 1520 1518 1515 1514 1513 1511 1511 1509
1561 1563 1564 1565 1565 1565 1564 1564 1563 1563 1562 1561 1560 1558 1558 1556 1553 1551 1549 1546 1543 1541 1538 1536 1533 1530 1527 1525 1524 1522 1520 1518 1518 1521 1519 1519 1517 1513 1512 1511 1510 1508 1507
1563 1565 1566 1566 1566 1566 1565 1565 1564 1563 1562 1561 1559 1558 1557 1555 1553 1550 1548 1544 1542 1540 1537 1533 1531 1527 1524 1523 1521 1518 1517 1515 1516 1517 1515 1516 1510 1510 1510 1508 1507 1506 1506
1566 1567 1568 1568 1567 1567 1566 1566 1565 1564 1562 1561 1559 1558 1556 1554 1552 1548 1546 1543 1540 1538 1535 1531 1528 1525 1522 1519 1517 1515 1514 1512 1511 1514 1512 1512 1506 1507 1508 1506 1505 1504 1504
1566 1567 1568 1568 1569 1570 1569 1567 1566 1565 1563 1561 1559 1557 1555 1552 1550 1547 1544 1541 1538 1535 1532 1528 1524 1521 1518 1515 1513 1511 1509 1509 1511 1510 1509 1508 1503 1503 1504 1504 1503 1502 1502
1567 1567 1568 1570 1569 1569 1570 1567 1567 1565 1562 1560 1558 1555 1554 1552 1550 1547 1541 1539 1536 1532 1528 1524 1521 1517 1515 1513 1509 1507 1506 1509 1507 1506 1506 1501 1499 1499 1500 1501 1499 1499 1499
1569 1569 1569 1569 1568 1567 1568 1568 1567 1565 1562 1559 1557 1555 1554 1550 1547 1543 1540 1535 1532 1529 1525 1522 1518 1515 1515 1514 1512 1509 1508 1505 1503 1502 1501 1496 1495 1494 1495 1497 1497 1495 1495
1572 1572 1572 1570 1569 1568 1566 1567 1567 1568 1564 1560 1556 1555 1552 1549 1547 1544 1541 1538 1534 1529 1527 1523 1520 1518 1514 1511 1509 1507 1503 1501 1500 1498 1496 1491 1489 1489 1490 1491 1493 1492 1491
1571 1573 1571 1570 1570 1569 1567 1567 1567 1566 1563 1562 1556 1553 1551 1550 1546 1541 1538 1537 1533 1529 1525 1522 1519 1515 1512 1509 1506 1503 1500 1498 1496 1493 1490 1487 1483 1483 1483 1485 1488 1489 1488
1571 1571 1571 1571 1571 1570 1568 1566 1565 1564 1563 1559 1556 1552 1549 1547 1543 1540 1538 1536 1532 1527 1523 1520 1517 1513 1510 1507 1503 1500 1497 1494 1492 1489 1486 1482 1478 1477 1477 1478 1481 1484 1485
1570 1570 1571 1571 1570 1569 1568 1566 1565 1563 1561 1559 1555 1551 1547 1543 1541 1539 1537 1533 1529 1525 1521 1518 1514 1510 1507 1504 1501 1498 1494 1491 1488 1485 1483 1480 1476 1473 1472 1472 1475 1477 1479
1571 1572 1571 1570 1570 1569 1568 1566 1563 1560 1558 1557 1553 1549 1545 1543 1540 1537 1535 1531 1527 1522 1519 1516 1512 1509 1506 1503 1499 1496 1492 1489 1485 1482 1479 1478 1476 1473 1468 1467 1469 1471 1473
1572 1573 1573 1572 1571 1568 1566 1564 1561 1558 1557 1555 1552 1549 1543 1541 1537 1534 1532 1529 1524 1520 1517 1514 1510 1506 1503 1500 1496 1493 1489 1485 1482 1478 1477 1474 1473 1471 1469 1464 1464 1465 1468
1574 1574 1574 1572 1570 1568 1565 1563 1560 1557 1556 1553 1550 1547 1542 1539 1535 1532 1530 1526 1522 1519 1516 1512 1508 1504 1500 1497 1493 1489 1486 1482 1479 1476 1474 1472 1470 1469 1467 1465 1462 1463 1463
1576 1575 1574 1572 1570 1568 1567 1565 1563 1560 1556 1553 1549 1545 1541 1538 1534 1531 1528 1525 1521 1517 1514 1510 1506 1502 1499 1495 1491 1486 1483 1479 1476 1473 1472 1469 1468 1466 1465 1463 1463 1464 1462
1577 1577 1575 1573 1571 1570 1568 1565 1562 1559 1556 1553 1549 1545 1540 1536 1533 1529 1526 1523 1519 1515 1511 1508 1504 1500 1497 1493 1489 1484 1479 1476 1474 1472 1469 1467 1465 1464 1462 1461 1461 1462 1462
1579 1578 1576 1574 1572 1570 1568 1564 1561 1558 1555 1552 1548 1544 1540 1535 1531 1528 1524 1520 1517 1513 1509 1506 1502 1498 1495 1491 1488 1483 1477 1474 1470 1470 1467 1465 1462 1460 1459 1458 1458 1458 1458
1580 1578 1577 1575 1573 1569 1566 1565 1561 1558 1555 1552 1548 1544 1539 1534 1530 1526 1522 1518 1514 1510 1507 1503 1500 1496 1492 1489 1486 1483 1478 1474 1470 1468 1465 1462 1460 1457 1455 1454 1453 1453 1454
1580 1579 1578 1575 1573 1570 1566 1564 1561 1558 1555 1551 1547 1543 1538 1533 1528 1524 1520 1516 1511 1508 1504 1500 1496 1493 1489 1484 1482 1479 1476 1473 1468 1464 1462 1458 1456 1453 1451 1449 1449 1449 1449
1581 1580 1578 1576 1574 1570 1567 1563 1561 1557 1554 1550 1546 1541 1537 1532 1527 1522 1517 1512 1509 1504 1500 1496 1492 1489 1485 1481 1477 1474 1471 1468 1465 1460 1454 1452 1450 1448 1446 1444 1444 1444 1444
1581 1580 1578 1577 1574 1571 1567 1563 1560 1556 1553 1549 1544 1539 1534 1530 1525 1520 1514 1510 1505 1501 1496 1492 1488 1484 1480 1476 1473 1470 1466 1463 1459 1456 1452 1449 1445 1443 1441 1439 1438 1438 1439
Wind_Speed
12 9 6 8 9 10 10 9 9 8 9 9 7 7 8 10 10 10 11 12 13 13 13 13 13 13 13 11 11 13 11 7 3 5 7 4 4 6 10 7 4 4 6
13 10 7 7 10 9 9 7 9 8 9 8 7 9 10 10 11 11 11 11 12 12 13 13 12 13 13 13 15 14 12 9 6 5 8 5 12 11 8 8 6 5 6
13 11 7 9 9 8 9 7 8 9 9 6 10 10 10 10 10 11 11 11 11 13 13 13 12 13 14 15 15 16 13 10 6 5 6 3 6 12 5 6 8 8 6
13 11 10 9 9 8 6 6 8 8 8 7 8 9 9 10 11 12 12 13 12 12 11 11 11 13 15 16 17 18 17 12 7 3 4 6 6 13 6 6 9 8 4
14 13 11 8 8 7 5 6 6 6 5 7 7 9 10 11 12 13 15 15 13 9 11 12 13 15 18 18 19 19 19 14 9 6 8 7 6 13 8 8 7 7 6
14 11 10 8 7 7 7 6 6 6 7 8 8 10 11 11 13 15 16 13 11 12 14 14 15 16 19 20 19 18 19 16 10 8 8 10 6 14 7 7 9 8 6
11 9 7 6 8 8 7 7 7 7 8 7 8 9 11 12 14 15 11 14 16 15 15 16 17 19 19 19 20 19 19 18 13 8 8 8 7 6 8 6 9 8 6
10 10 8 8 10 8 8 7 7 6 6 6 7 10 12 15 17 16 14 15 18 17 17 18 20 20 19 19 20 21 19 18 12 11 10 8 15 8 7 11 12 11 7
12 12 12 10 10 9 8 8 6 6 6 7 9 12 16 18 18 17 16 16 18 17 18 19 21 21 21 21 20 20 19 17 14 11 11 10 17 14 6 10 8 9 9
13 13 12 12 11 9 7 5 6 8 8 8 10 14 18 19 18 17 17 19 20 20 20 21 22 22 22 21 20 19 18 15 11 12 11 12 20 17 9 11 13 12 9
13 13 12 10 10 8 5 5 7 8 9 11 14 17 15 13 12 12 20 20 21 22 23 23 23 23 23 19 23 21 16 11 13 12 12 19 18 17 13 13 13 17 17
13 13 11 10 8 6 4 6 8 8 8 10 13 16 10 14 16 16 19 26 25 24 24 24 23 20 17 14 14 16 13 14 13 14 13 23 19 18 14 15 15 15 17
11 10 9 7 5 4 6 8 8 7 8 9 13 15 14 11 13 13 14 14 15 18 15 15 14 13 14 14 14 14 14 14 14 15 16 23 21 20 17 15 17 16 14
12 10 7 4 5 5 7 7 7 7 9 9 12 18 11 12 13 14 14 15 15 16 16 15 15 16 15 15 15 15 15 15 15 16 16 19 22 24 22 17 16 18 15
12 8 4 2 5 9 11 10 8 9 10 11 10 12 12 13 14 15 15 16 16 16 17 17 17 17 16 16 16 16 17 17 17 16 15 18 21 22 26 22 19 19 18
11 6 4 5 9 12 11 9 9 9 10 10 10 11 13 16 14 14 16 16 17 18 18 18 18 18 18 17 18 18 19 18 18 16 14 14 20 18 21 26 22 21 20
8 6 5 9 10 11 9 9 10 10 9 10 10 12 14 14 15 16 16 17 17 18 18 18 18 17 17 17 18 18 18 18 18 16 13 13 13 15 17 20 22 22 20
8 6 8 9 9 10 11 11 12 16 10 10 11 12 14 14 15 15 15 16 18 18 18 18 18 18 18 18 18 18 19 19 16 14 12 12 12 12 11 13 21 22 20
7 7 8 9 10 11 13 13 13 13 11 11 12 12 15 14 15 15 15 16 17 17 17 17 18 18 19 18 19 20 18 17 14 13 12 13 11 10 9 12 18 19 21
7 8 9 10 12 14 12 12 11 11 11 12 11 12 14 13 15 15 14 15 16 16 16 17 17 17 17 18 19 19 19 15 13 8 12 13 12 12 10 9 8 13 21
9 10 11 11 16 14 13 13 12 12 12 11 12 13 14 15 15 15 15 15 15 15 16 16 17 17 18 17 20 19 19 12 11 8 17 11 12 15 13 11 9 13 13
10 10 11 13 14 14 13 13 13 12 11 12 14 15 16 16 16 16 16 16 16 17 17 17 17 18 18 17 18 20 16 17 9 16 14 16 12 12 14 15 14 14 14
9 9 10 11 12 14 14 14 14 12 12 14 15 16 17 17 16 17 17 17 17 17 18 18 18 18 21 19 16 17 16 17 22 20 19 14 14 17 16 17 19 17 17
8 8 9 11 11 12 15 14 15 14 15 16 17 18 18 18 18 18 18 18 18 19 19 19 19 20 20 22 20 18 18 21 22 25 21 21 22 18 17 17 17 19 19
6 6 8 10 11 12 13 14 14 15 14 16 17 19 19 18 18 19 19 20 19 19 19 19 20 20 21 22 21 22 21 22 22 25 28 28 24 21 19 17 17 18 19
5 6 7 10 11 11 14 15 16 15 16 18 21 21 21 20 19 19 21 20 19 19 19 20 20 20 20 20 20 21 22 23 25 25 27 27 27 23 19 17 17 17 18
Wind_Direction
178 181 175 139 130 124 121 118 111 93 84 80 66 48 30 25 25 26 33 36 41 31 29 22 18 13 2 2 348 345 347 334 296 224 189 156 227 269 266 292 140 323 250
165 165 167 145 123 115 114 109 97 103 87 77 52 36 34 34 31 30 33 35 31 30 23 16 16 7 6 358 346 344 348 335 308 246 222 288 316 287 301 283 269 304 273
161 154 151 121 120 116 112 108 99 88 79 71 48 46 38 35 32 28 26 26 28 25 23 11 9 3 357 352 345 340 342 336 311 271 235 268 275 300 312 315 296 283 276
158 152 134 134 133 133 134 124 105 93 89 51 47 39 37 34 24 20 16 20 25 27 24 22 10 357 350 345 340 336 334 337 321 284 302 271 277 290 308 301 310 305 287
149 134 140 141 145 143 150 116 97 87 65 42 35 32 30 23 16 12 6 1 13 24 16 8 354 343 337 335 333 330 325 331 328 324 280 281 267 277 282 298 330 342 295
141 144 150 165 158 129 120 91 66 61 41 32 32 33 24 21 10 2 359 7 9 356 353 347 338 332 333 329 327 324 317 325 326 303 290 286 289 269 287 274 291 286 285
144 139 145 191 133 130 96 72 53 40 31 28 27 19 11 6 358 359 4 347 344 341 341 337 327 328 332 327 324 320 318 319 321 306 293 283 277 277 271 255 268 282 277
126 118 111 134 128 100 79 68 57 43 35 35 26 13 6 0 353 352 342 339 337 337 333 328 325 324 326 322 319 316 316 313 320 304 287 277 260 242 280 268 267 266 268
115 118 115 112 104 96 86 72 53 31 26 21 10 5 359 353 352 350 347 345 338 334 329 325 324 324 323 320 317 314 314 310 310 294 292 267 264 238 271 274 261 256 243
119 118 119 115 113 98 77 66 34 22 9 0 358 358 354 357 353 350 351 343 342 340 336 331 327 327 328 325 321 318 320 324 311 293 286 268 255 245 262 267 255 242 239
123 123 123 114 110 98 82 34 17 0 355 357 357 351 2 359 356 358 341 345 343 342 340 338 335 333 334 344 335 329 335 311 305 292 282 268 265 252 265 261 267 255 250
131 127 125 119 111 97 58 9 351 356 350 346 347 353 358 349 344 353 348 347 346 342 344 340 337 345 346 330 322 331 318 308 309 289 282 270 267 259 270 260 263 267 258
129 119 106 108 91 58 27 355 0 346 351 346 340 337 337 348 340 345 344 340 341 337 340 342 338 333 327 329 323 320 316 315 302 292 283 277 269 260 264 263 255 258 262
126 114 118 83 41 26 12 351 346 340 341 332 325 335 342 338 338 344 340 339 338 338 337 338 334 327 326 323 321 320 318 316 306 297 291 285 274 259 256 265 253 252 256
132 112 105 48 33 6 345 338 345 341 328 329 329 329 337 337 337 341 335 334 335 336 335 334 330 327 323 322 320 319 317 315 312 306 296 292 294 266 255 255 250 247 247
132 137 80 43 8 347 346 347 341 337 333 333 332 324 339 339 331 331 329 329 331 334 332 331 328 328 323 320 318 315 315 312 310 304 298 295 298 295 264 250 247 249 235
129 101 59 11 353 344 352 350 347 344 349 339 337 336 335 334 328 327 326 328 328 332 331 329 327 325 320 315 315 313 314 309 307 298 299 296 300 306 296 255 237 240 235
110 67 18 2 359 353 351 350 355 348 353 347 342 341 337 336 333 333 328 326 323 330 327 325 326 324 320 317 315 312 311 308 302 293 288 302 296 302 306 282 234 238 232
71 43 16 14 18 15 1 359 357 352 353 350 346 343 341 344 342 338 329 324 325 327 325 324 323 322 319 318 314 314 312 309 303 294 287 291 300 301 295 289 244 243 229
57 32 34 41 23 9 7 1 351 348 350 350 348 345 344 340 340 337 331 324 328 325 322 321 322 321 319 316 317 319 312 303 307 292 307 299 289 293 295 287 258 246 255
45 62 55 29 14 19 6 2 357 352 342 346 348 344 348 341 340 339 331 328 327 323 319 324 323 323 322 319 319 318 315 298 300 297 321 300 290 284 277 278 262 241 249
73 61 43 27 22 16 6 6 357 348 345 351 344 345 343 342 340 339 333 330 323 323 321 320 322 320 320 319 318 319 320 307 265 305 301 309 302 296 274 271 262 252 242
73 54 41 27 19 11 17 1 1 356 354 346 347 342 341 339 338 336 332 327 323 322 316 315 313 314 313 314 312 311 314 304 306 305 295 301 296 301 282 267 264 256 249
71 56 34 26 16 9 10 5 4 2 353 348 346 340 343 338 337 336 333 329 324 319 315 312 309 307 307 305 304 301 296 293 290 297 295 293 295 293 289 275 262 255 251
69 49 32 19 11 10 7 8 6 358 355 349 347 346 342 340 336 336 332 330 325 322 314 312 310 305 302 300 298 299 295 293 290 290 295 295 291 288 285 272 264 256 251
65 51 25 12 8 8 7 5 3 360 355 354 351 349 345 342 340 336 333 331 328 324 318 315 309 306 302 297 295 294 293 292 290 290 290 289 291 289 283 270 259 252 250